• In United Kingdom
  • List of Countries
  • For 7 days
  • Water Temperature
  • Satellite Maps
  • Weather Map
  • Weather Widgets
  • user-avatar
    Login

    Hourly Weather Campeche

    Today, 21 September, Thursday

    Time Temperature Precipitation Wind Pressure Humidity
    00:00 +28°C° 0 mm 1 mps 757 mmHg 84%
    01:00 +27°C° 0 mm 1 mps 757 mmHg 87%
    02:00 +27°C° 0 mm 1 mps 757 mmHg 90%
    03:00 +26°C° 0 mm 1 mps 756 mmHg 94%
    04:00 +26°C° 0 mm 1 mps 757 mmHg 95%
    05:00 +25°C° 0 mm 1 mps 757 mmHg 97%
    06:00 +26°C° 0 mm 1 mps 757 mmHg 97%
    07:00 +28°C° 0 mm 1 mps 757 mmHg 86%
    08:00 +30°C° 0 mm 1 mps 757 mmHg 75%
    09:00 +32°C° 0 mm 2 mps 757 mmHg 63%
    10:00 +35°C° 0 mm 2 mps 756 mmHg 56%
    11:00 +37°C° 0 mm 2 mps 756 mmHg 48%
    12:00 +39°C° 0 mm 1 mps 755 mmHg 40%
    13:00 +37°C° 0 mm 1 mps 755 mmHg 42%
    14:00 +37°C° 0 mm 1 mps 754 mmHg 44%
    15:00 +34°C° 0 mm 0 mps 754 mmHg 47%
    16:00 +35°C° 0 mm 1 mps 754 mmHg 52%
    17:00 +33°C° 0 mm 1 mps 754 mmHg 58%
    18:00 +32°C° 0 mm 1 mps 754 mmHg 63%
    19:00 +31°C° 0.1 mm 1 mps 754 mmHg 68%
    20:00 +30°C° 0.1 mm 1 mps 755 mmHg 73%
    21:00 +29°C° 0.1 mm 1 mps 755 mmHg 78%
    22:00 +28°C° 0 mm 1 mps 756 mmHg 80%
    23:00 +28°C° 0 mm 1 mps 756 mmHg 83%

    Tomorrow, 22 September, Friday

    Time Temperature Precipitation Wind Pressure Humidity
    00:00 +27°C° 0 mm 1 mps 756 mmHg 85%
    01:00 +27°C° 0 mm 1 mps 756 mmHg 88%
    02:00 +26°C° 0 mm 1 mps 755 mmHg 91%
    03:00 +25°C° 0 mm 1 mps 755 mmHg 94%
    04:00 +25°C° 0 mm 1 mps 755 mmHg 95%
    05:00 +25°C° 0 mm 1 mps 755 mmHg 96%
    06:00 +25°C° 0 mm 1 mps 755 mmHg 97%
    07:00 +27°C° 0 mm 1 mps 756 mmHg 88%
    08:00 +29°C° 0 mm 1 mps 756 mmHg 78%
    09:00 +31°C° 0 mm 1 mps 756 mmHg 68%
    10:00 +34°C° 0 mm 1 mps 756 mmHg 58%
    11:00 +36°C° 0 mm 1 mps 755 mmHg 47%
    12:00 +40°C° 0 mm 1 mps 755 mmHg 37%
    13:00 +39°C° 0 mm 1 mps 754 mmHg 36%
    14:00 +39°C° 0 mm 1 mps 753 mmHg 36%
    15:00 +39°C° 0 mm 1 mps 753 mmHg 36%
    16:00 +37°C° 0 mm 2 mps 753 mmHg 44%
    17:00 +35°C° 0 mm 2 mps 753 mmHg 51%
    18:00 +32°C° 0 mm 2 mps 753 mmHg 59%
    19:00 +31°C° 0.3 mm 2 mps 754 mmHg 70%
    20:00 +29°C° 0.3 mm 2 mps 754 mmHg 80%
    21:00 +27°C° 0.3 mm 1 mps 755 mmHg 91%
    22:00 +27°C° 0 mm 1 mps 755 mmHg 92%
    23:00 +27°C° 0 mm 1 mps 755 mmHg 93%

    Day after tomorrow, 23 September, Saturday

    Time Temperature Precipitation Wind Pressure Humidity
    00:00 +26°C° 0 mm 1 mps 755 mmHg 94%
    01:00 +26°C° 0.2 mm 1 mps 755 mmHg 95%
    02:00 +26°C° 0.2 mm 1 mps 754 mmHg 96%
    03:00 +26°C° 0.2 mm 1 mps 754 mmHg 97%
    04:00 +26°C° 0.1 mm 1 mps 754 mmHg 97%
    05:00 +26°C° 0.1 mm 1 mps 754 mmHg 97%
    06:00 +26°C° 0.1 mm 1 mps 755 mmHg 98%
    07:00 +27°C° 0 mm 1 mps 755 mmHg 91%
    08:00 +29°C° 0 mm 1 mps 755 mmHg 85%
    09:00 +30°C° 0 mm 1 mps 756 mmHg 78%
    10:00 +33°C° 0 mm 1 mps 755 mmHg 65%
    11:00 +35°C° 0 mm 1 mps 755 mmHg 53%
    12:00 +39°C° 0 mm 1 mps 754 mmHg 41%
    13:00 +39°C° 0 mm 1 mps 754 mmHg 40%
    14:00 +39°C° 0 mm 1 mps 753 mmHg 40%
    15:00 +39°C° 0 mm 1 mps 752 mmHg 40%
    16:00 +36°C° 0 mm 1 mps 752 mmHg 47%
    17:00 +34°C° 0 mm 1 mps 752 mmHg 54%
    18:00 +32°C° 0 mm 2 mps 752 mmHg 61%
    19:00 +31°C° 0.1 mm 1 mps 753 mmHg 69%
    20:00 +29°C° 0.1 mm 1 mps 754 mmHg 78%
    21:00 +28°C° 0.1 mm 1 mps 754 mmHg 86%
    22:00 +27°C° 0 mm 1 mps 755 mmHg 88%
    23:00 +27°C° 0 mm 1 mps 755 mmHg 89%

    24 September, Sunday

    Time Temperature Precipitation Wind Pressure Humidity
    00:00 +27°C° 0 mm 1 mps 755 mmHg 91%
    01:00 +26°C° 0 mm 1 mps 754 mmHg 93%
    02:00 +26°C° 0 mm 1 mps 754 mmHg 95%
    03:00 +26°C° 0 mm 1 mps 753 mmHg 96%
    04:00 +26°C° 0 mm 1 mps 754 mmHg 97%
    05:00 +26°C° 0 mm 1 mps 754 mmHg 97%
    06:00 +26°C° 0 mm 1 mps 754 mmHg 97%
    07:00 +28°C° 0 mm 1 mps 754 mmHg 88%
    08:00 +30°C° 0 mm 1 mps 755 mmHg 78%
    09:00 +32°C° 0 mm 2 mps 755 mmHg 68%
    10:00 +34°C° 0 mm 1 mps 755 mmHg 58%
    11:00 +36°C° 0 mm 1 mps 754 mmHg 47%
    12:00 +39°C° 0 mm 1 mps 754 mmHg 37%
    13:00 +40°C° 0 mm 1 mps 753 mmHg 36%
    14:00 +40°C° 0 mm 1 mps 752 mmHg 35%
    15:00 +40°C° 0 mm 1 mps 751 mmHg 34%
    16:00 +37°C° 0 mm 1 mps 752 mmHg 41%
    17:00 +35°C° 0 mm 1 mps 752 mmHg 48%
    18:00 +33°C° 0 mm 1 mps 752 mmHg 55%
    19:00 +31°C° 0.3 mm 1 mps 753 mmHg 65%
    20:00 +30°C° 0.3 mm 1 mps 754 mmHg 74%
    21:00 +28°C° 0.3 mm 1 mps 754 mmHg 84%
    22:00 +28°C° 0.1 mm 1 mps 754 mmHg 86%
    23:00 +28°C° 0.1 mm 1 mps 754 mmHg 89%

    25 September, Monday

    Time Temperature Precipitation Wind Pressure Humidity
    00:00 +27°C° 0.1 mm 2 mps 754 mmHg 91%
    01:00 +27°C° 0 mm 1 mps 754 mmHg 93%
    02:00 +27°C° 0 mm 1 mps 754 mmHg 95%
    03:00 +26°C° 0 mm 1 mps 753 mmHg 97%
    04:00 +26°C° 0 mm 1 mps 754 mmHg 98%
    05:00 +26°C° 0 mm 1 mps 754 mmHg 98%
    06:00 +26°C° 0 mm 1 mps 754 mmHg 99%
    07:00 +28°C° 0 mm 1 mps 755 mmHg 88%
    08:00 +30°C° 0 mm 1 mps 755 mmHg 77%
    09:00 +32°C° 0 mm 2 mps 755 mmHg 65%
    10:00 +34°C° 0.6 mm 2 mps 755 mmHg 66%
    11:00 +35°C° 0.6 mm 2 mps 754 mmHg 66%
    12:00 +35°C° 0.6 mm 2 mps 754 mmHg 66%
    13:00 +34°C° 2.4 mm 2 mps 753 mmHg 75%
    14:00 +32°C° 2.4 mm 2 mps 752 mmHg 83%
    15:00 +31°C° 2.4 mm 1 mps 752 mmHg 92%
    16:00 +30°C° 0.5 mm 1 mps 752 mmHg 91%
    17:00 +29°C° 0.5 mm 1 mps 753 mmHg 90%
    18:00 +29°C° 0.5 mm 1 mps 753 mmHg 89%
    19:00 +28°C° 0.1 mm 1 mps 753 mmHg 90%
    20:00 +28°C° 0.1 mm 1 mps 754 mmHg 91%
    21:00 +27°C° 0.1 mm 1 mps 754 mmHg 92%
    22:00 +27°C° 0 mm 1 mps 754 mmHg 92%
    23:00 +27°C° 0 mm 1 mps 754 mmHg 92%

    26 September, Tuesday

    Time Temperature Precipitation Wind Pressure Humidity
    00:00 +27°C° 0 mm 1 mps 754 mmHg 92%
    01:00 +27°C° 0 mm 1 mps 754 mmHg 93%
    02:00 +27°C° 0 mm 1 mps 753 mmHg 93%
    03:00 +27°C° 0 mm 1 mps 753 mmHg 93%
    04:00 +27°C° 0 mm 1 mps 753 mmHg 93%
    05:00 +27°C° 0 mm 1 mps 753 mmHg 94%
    06:00 +27°C° 0 mm 1 mps 753 mmHg 94%
    07:00 +29°C° 0 mm 2 mps 754 mmHg 85%
    08:00 +31°C° 0 mm 2 mps 754 mmHg 75%
    09:00 +34°C° 0 mm 3 mps 754 mmHg 66%
    10:00 +35°C° 0 mm 3 mps 753 mmHg 60%
    11:00 +37°C° 0 mm 3 mps 753 mmHg 53%
    12:00 +39°C° 0 mm 3 mps 752 mmHg 47%
    13:00 +38°C° 0.2 mm 3 mps 752 mmHg 47%
    14:00 +38°C° 0.2 mm 3 mps 751 mmHg 48%
    15:00 +38°C° 0.2 mm 3 mps 751 mmHg 49%
    16:00 +37°C° 0.4 mm 2 mps 751 mmHg 55%
    17:00 +35°C° 0.4 mm 2 mps 752 mmHg 61%
    18:00 +32°C° 0.4 mm 2 mps 752 mmHg 67%
    19:00 +32°C° 0.1 mm 2 mps 752 mmHg 70%
    20:00 +31°C° 0.1 mm 2 mps 753 mmHg 73%
    21:00 +30°C° 0.1 mm 2 mps 754 mmHg 76%
    22:00 +30°C° 0 mm 2 mps 753 mmHg 77%
    23:00 +30°C° 0 mm 2 mps 753 mmHg 79%
    Show more